Wind_Speed
32 33 33 31 30 29 28 25 25 23 21 19 19 20 21 18 16 14 12 13 12 11 10 9 10 12 12 12 9 8 9 9 13 13 12 12 13 21 22 28 24 24 21
35 34 33 31 31 30 28 26 26 24 22 20 21 22 22 18 16 15 14 13 13 13 12 12 12 14 16 15 14 13 15 14 15 14 16 17 17 17 18 20 22 22 22
34 34 33 33 32 31 28 26 26 25 22 21 23 23 23 20 17 16 14 13 12 13 15 15 16 18 18 19 18 15 15 16 17 17 18 18 20 20 20 20 24 25 27
34 34 34 33 33 32 28 27 26 25 23 23 24 24 25 22 19 17 16 16 16 16 18 19 20 21 21 21 20 18 14 16 19 18 19 20 22 23 24 25 26 28 31
35 35 35 34 33 30 29 27 27 25 25 25 24 26 27 23 21 20 19 18 17 17 20 23 25 25 24 21 20 20 17 16 19 22 21 22 23 25 28 29 28 28 29
33 34 34 33 32 30 29 28 28 27 27 25 26 28 29 24 22 22 20 19 18 21 24 26 28 26 23 22 20 20 20 19 18 21 24 24 26 25 26 27 25 24 24
32 32 32 32 30 30 30 29 28 27 27 28 29 30 29 26 24 22 22 19 21 25 27 29 28 28 26 24 19 21 21 23 23 22 23 27 28 29 30 27 26 25 22
34 32 31 31 31 30 30 30 31 29 29 30 32 31 29 29 23 22 21 21 25 28 31 32 29 27 24 27 23 22 23 20 20 26 21 24 27 29 30 27 26 24 24
35 33 31 30 31 32 33 33 30 31 31 35 35 32 32 26 23 23 24 25 30 31 33 32 30 30 28 27 21 22 23 22 20 25 24 23 25 27 27 27 28 25 26
38 38 37 35 35 34 35 35 41 33 38 39 38 33 31 23 29 24 29 29 31 32 33 32 31 29 23 29 26 24 21 19 23 26 24 23 24 26 26 26 25 23 25
37 43 44 43 44 47 47 47 38 37 40 38 36 34 26 32 24 30 30 31 32 33 32 32 31 28 28 30 24 22 22 19 18 21 22 23 21 22 23 23 24 25 26
33 38 43 47 49 48 44 39 40 43 37 40 38 32 35 26 29 32 30 32 32 32 32 30 28 27 26 26 21 22 21 21 17 19 19 21 22 24 24 25 27 27 24
35 39 43 44 43 42 43 40 37 37 38 38 38 35 31 28 34 28 30 31 31 32 30 29 27 25 26 26 23 21 21 20 20 20 20 21 25 25 27 27 26 25 24
34 37 42 44 42 43 43 38 38 39 40 40 37 37 31 34 27 28 29 30 32 31 29 27 26 24 25 22 19 21 22 21 23 19 20 21 24 26 27 28 27 26 24
37 38 41 43 44 46 40 40 40 42 42 42 38 38 36 32 27 28 29 31 31 30 27 25 24 24 21 18 18 20 20 20 23 22 22 23 22 23 26 29 29 25 25
39 39 41 43 44 42 41 39 40 42 43 43 41 41 35 31 30 28 30 31 29 29 26 24 23 24 21 20 18 15 13 16 18 22 22 21 23 24 26 29 30 28 26
43 42 41 38 37 40 42 41 43 44 47 46 42 33 35 31 27 29 29 29 28 28 26 24 23 23 21 22 25 25 21 21 20 20 20 18 19 22 23 26 29 32 32
45 40 37 40 39 41 43 43 43 47 47 45 36 33 33 27 27 27 28 28 28 27 26 24 23 23 20 22 25 27 27 27 28 27 23 22 21 21 22 25 28 31 34
45 44 43 40 40 43 43 43 46 47 46 40 34 35 30 28 26 26 27 28 29 28 27 25 24 23 22 20 21 23 24 27 27 28 29 29 29 29 26 27 30 31 34
48 45 40 39 43 41 41 40 42 43 40 34 36 35 28 27 25 27 28 30 30 29 29 27 26 25 24 23 22 23 22 23 25 28 33 33 31 32 34 35 32 31 33
46 43 43 44 41 37 34 37 37 36 35 36 32 28 28 27 29 29 29 31 33 33 31 30 29 28 27 26 26 26 25 25 27 28 28 31 29 29 31 33 38 39 36
43 45 45 41 34 33 34 34 35 37 37 32 29 29 30 32 34 32 31 33 34 34 33 32 32 31 29 28 27 26 27 27 28 29 30 31 32 35 37 35 36 37 38
40 41 36 33 34 35 36 37 37 35 31 29 30 31 32 32 32 31 32 33 34 35 34 34 33 33 33 34 34 34 34 34 34 33 33 33 35 36 36 36 38 40 42
40 39 36 38 42 42 42 37 31 28 28 29 31 31 31 30 30 31 30 31 32 34 35 36 37 37 37 38 38 39 39 40 40 39 39 40 40 40 40 42 43 45 45
45 45 43 44 43 35 28 28 26 27 29 29 29 28 28 29 29 29 29 30 31 33 34 36 37 37 39 39 40 40 41 42 42 43 43 43 45 46 47 47 47 47 47
48 45 42 37 31 30 29 27 27 26 26 25 24 25 26 27 29 30 30 31 32 32 33 34 35 37 38 39 41 43 43 44 45 46 47 48 49 49 49 50 51 50 49
Wind_Direction
256 259 263 266 270 274 277 280 281 285 290 292 298 309 310 296 286 281 274 275 274 284 294 307 315 317 314 308 286 257 254 246 236 237 202 200 227 225 219 209 210 215 221
256 258 260 263 267 270 273 276 277 281 284 286 295 303 305 292 280 276 271 269 272 275 282 291 296 298 301 303 293 277 258 259 265 240 223 223 221 221 221 223 231 245 260
256 259 261 263 265 266 269 271 274 279 279 282 292 299 301 290 271 270 267 264 268 276 282 286 289 291 293 294 295 291 271 262 253 246 238 238 235 240 244 250 255 255 262
256 259 260 262 263 265 267 268 271 272 272 280 289 296 296 287 266 261 254 260 268 273 277 280 284 288 289 289 289 290 278 256 253 252 251 243 233 235 243 248 255 260 264
255 257 258 259 261 264 266 266 267 267 273 280 287 294 292 282 265 257 257 259 266 273 279 283 282 282 287 283 282 282 281 265 250 251 250 245 238 235 242 245 251 255 262
250 252 256 259 261 263 263 264 266 269 275 279 286 288 287 272 261 259 262 261 269 282 285 288 284 281 281 284 283 275 277 274 259 246 242 243 245 249 247 250 251 258 261
254 255 255 255 256 261 264 266 269 272 277 283 284 286 279 266 257 258 262 265 281 287 290 288 287 287 285 282 279 278 280 273 271 270 254 237 244 248 249 254 259 262 259
259 256 254 256 258 258 262 266 271 274 276 280 283 281 272 262 253 262 263 275 286 290 292 290 290 287 281 278 281 276 280 279 275 268 257 252 239 251 254 256 262 260 256
255 257 258 256 258 261 264 266 269 274 276 285 282 277 263 253 251 258 272 281 289 291 289 289 289 285 279 279 269 274 287 270 276 265 256 258 237 245 253 256 261 254 261
256 257 257 257 262 262 263 265 274 271 279 283 277 267 256 248 249 260 271 279 287 287 287 286 286 284 277 279 266 266 280 264 272 259 259 257 248 237 242 252 252 256 272
257 259 260 263 264 266 269 273 271 277 283 276 265 255 248 248 258 271 266 284 285 286 285 286 286 286 274 273 267 263 264 259 263 263 261 261 254 243 243 251 252 261 278
257 262 263 266 269 275 275 272 273 276 272 268 261 249 247 255 266 268 277 281 283 284 283 283 284 283 279 274 266 256 260 259 257 267 268 269 259 247 248 248 255 264 268
252 258 260 262 264 266 266 269 269 271 265 265 261 250 252 259 263 269 277 280 282 282 281 281 282 282 278 270 262 252 253 259 252 263 272 270 259 252 249 253 260 263 262
246 251 257 259 257 261 263 263 267 260 258 258 255 250 249 257 261 270 276 281 282 279 276 279 282 281 275 267 262 252 250 258 257 257 262 264 261 256 250 252 257 260 260
241 248 255 259 257 258 261 264 260 256 253 256 250 254 252 256 263 270 275 279 279 273 274 277 277 276 267 259 255 252 255 257 255 255 259 264 263 255 250 248 250 252 249
239 244 252 256 258 258 263 262 255 250 251 254 250 259 264 246 252 265 272 277 273 269 272 274 273 273 260 246 234 242 259 262 262 252 257 264 263 253 253 248 245 245 244
237 242 249 255 254 254 261 257 253 248 250 255 262 256 250 243 256 265 269 273 266 266 269 270 270 270 256 246 238 236 246 252 255 250 252 256 258 255 253 250 249 247 254
237 241 242 243 246 251 253 253 252 248 249 256 256 252 238 244 260 265 269 268 262 262 263 265 265 265 258 247 245 247 251 249 252 256 257 258 258 257 251 253 254 256 258
231 232 235 237 243 248 250 252 250 247 248 255 248 238 233 246 259 265 271 266 259 259 257 258 258 258 259 254 249 250 254 257 260 264 264 263 264 265 262 257 252 252 251
232 233 231 233 241 247 252 255 251 248 251 244 235 231 232 249 256 261 268 266 260 257 255 256 256 256 256 257 261 261 260 265 270 272 268 265 263 261 261 262 261 262 260
233 231 230 232 239 244 247 252 250 243 233 228 224 231 238 245 257 262 263 262 257 254 253 256 256 255 255 255 256 261 264 267 269 275 279 268 265 267 264 263 259 263 261
226 230 233 235 235 238 237 234 234 228 225 222 230 237 246 252 255 260 262 260 255 252 256 258 256 254 254 255 257 261 266 270 271 271 269 266 265 267 269 267 268 270 268
230 232 232 232 230 226 226 223 222 223 226 234 242 248 251 253 256 257 257 257 254 252 254 255 255 255 257 259 262 264 265 266 268 271 273 273 270 269 269 269 267 268 268
225 225 224 226 222 221 220 221 223 228 235 242 247 250 251 251 253 256 256 253 252 253 254 256 257 260 263 264 266 268 270 271 271 270 270 270 272 273 271 270 270 271 271
212 215 220 224 225 226 231 233 236 243 247 252 254 255 258 258 258 259 259 257 256 255 256 258 260 262 263 265 267 268 269 270 271 271 271 271 272 273 274 273 271 271 270
207 216 220 222 228 234 235 237 242 249 255 259 263 265 266 265 263 262 263 264 263 262 263 264 265 266 267 268 269 270 271 272 272 273 275 275 274 273 272 272 272 271 270
Height
5745 5747 5749 5750 5751 5751 5752 5753 5753 5752 5752 5751 5751 5749 5747 5746 5745 5744 5743 5742 5740 5740 5739 5738 5738 5736 5735 5734 5735 5736 5738 5739 5738 5738 5739 5738 5739 5740 5740 5741 5742 5743 5743
5737 5739 5741 5743 5743 5744 5746 5747 5747 5747 5746 5745 5745 5744 5743 5741 5741 5740 5739 5738 5737 5737 5736 5735 5735 5735 5734 5733 5732 5732 5733 5733 5734 5735 5735 5735 5735 5737 5739 5740 5740 5740 5739
5729 5731 5734 5736 5736 5737 5739 5740 5740 5740 5741 5740 5740 5739 5738 5737 5736 5736 5735 5734 5734 5733 5733 5732 5731 5730 5729 5729 5729 5728 5728 5729 5730 5731 5731 5731 5732 5733 5735 5736 5737 5736 5736
5721 5724 5726 5728 5729 5730 5732 5733 5733 5734 5734 5734 5734 5734 5732 5731 5731 5731 5730 5730 5730 5729 5729 5727 5726 5725 5724 5723 5723 5722 5723 5723 5724 5725 5725 5726 5727 5728 5730 5731 5732 5733 5733
5713 5715 5718 5720 5722 5724 5725 5726 5727 5727 5727 5728 5728 5727 5726 5725 5725 5725 5725 5725 5725 5724 5724 5723 5721 5719 5718 5717 5717 5717 5717 5718 5719 5719 5721 5722 5723 5725 5725 5726 5728 5728 5728
5704 5707 5710 5713 5715 5717 5718 5719 5720 5720 5720 5721 5721 5721 5719 5718 5719 5719 5719 5719 5719 5719 5718 5715 5714 5713 5712 5711 5711 5711 5711 5712 5712 5713 5715 5716 5717 5719 5719 5720 5721 5721 5721
5696 5700 5703 5705 5708 5709 5710 5712 5713 5713 5714 5714 5714 5713 5712 5711 5712 5712 5713 5713 5712 5712 5710 5709 5707 5704 5704 5703 5704 5704 5704 5704 5704 5706 5706 5709 5710 5711 5712 5714 5714 5714 5714
5690 5692 5695 5698 5700 5701 5703 5704 5705 5706 5706 5706 5706 5705 5704 5704 5704 5706 5706 5706 5705 5704 5703 5701 5699 5697 5697 5696 5697 5698 5698 5698 5698 5698 5699 5699 5701 5703 5704 5705 5706 5708 5708
5683 5685 5687 5690 5692 5694 5696 5697 5698 5698 5698 5698 5697 5697 5697 5697 5698 5699 5699 5699 5698 5697 5695 5693 5692 5690 5689 5689 5690 5690 5691 5690 5690 5691 5691 5692 5692 5694 5696 5699 5700 5701 5701
5674 5677 5678 5681 5684 5686 5687 5688 5689 5689 5689 5689 5689 5688 5688 5690 5690 5692 5692 5691 5690 5689 5687 5686 5683 5683 5682 5681 5681 5683 5683 5682 5683 5684 5684 5685 5685 5687 5689 5691 5692 5693 5694
5664 5666 5670 5673 5675 5675 5678 5678 5678 5679 5680 5680 5680 5679 5681 5682 5684 5684 5683 5683 5682 5681 5679 5678 5676 5675 5674 5673 5674 5675 5677 5676 5677 5678 5678 5679 5679 5681 5683 5685 5685 5686 5686
5654 5657 5660 5662 5664 5666 5666 5668 5669 5670 5670 5671 5671 5671 5672 5674 5676 5675 5675 5674 5673 5672 5670 5669 5668 5667 5666 5665 5666 5667 5669 5670 5671 5672 5673 5673 5674 5676 5677 5678 5678 5679 5679
5643 5646 5649 5651 5654 5656 5657 5659 5659 5660 5662 5662 5662 5663 5664 5666 5667 5667 5667 5665 5664 5663 5662 5662 5661 5660 5658 5657 5659 5660 5662 5663 5664 5665 5666 5666 5668 5669 5670 5671 5671 5672 5672
5631 5634 5637 5639 5642 5644 5646 5650 5650 5651 5652 5653 5653 5654 5656 5657 5658 5659 5658 5657 5656 5655 5655 5654 5653 5652 5651 5651 5651 5653 5654 5656 5657 5658 5659 5660 5660 5662 5663 5664 5665 5665 5666
5618 5621 5624 5627 5630 5632 5636 5638 5639 5641 5642 5643 5644 5645 5647 5648 5650 5650 5649 5649 5648 5648 5647 5646 5645 5645 5644 5644 5646 5646 5647 5648 5649 5651 5652 5653 5653 5654 5656 5657 5658 5659 5660
5605 5608 5611 5615 5618 5623 5625 5626 5627 5629 5632 5632 5633 5635 5638 5639 5640 5640 5641 5640 5640 5641 5640 5639 5639 5638 5637 5638 5639 5640 5641 5642 5642 5643 5645 5646 5646 5647 5648 5649 5651 5652 5653
5592 5595 5599 5605 5608 5610 5613 5614 5616 5618 5620 5622 5624 5627 5628 5631 5631 5631 5631 5631 5632 5633 5633 5633 5632 5632 5631 5631 5633 5634 5635 5636 5637 5637 5638 5639 5639 5640 5641 5642 5644 5645 5647
5578 5583 5588 5591 5595 5598 5600 5602 5603 5606 5608 5611 5614 5617 5619 5621 5622 5622 5622 5622 5623 5625 5626 5626 5626 5626 5625 5625 5626 5627 5628 5629 5630 5630 5631 5632 5633 5633 5634 5635 5636 5637 5638
5565 5570 5573 5579 5582 5584 5587 5590 5591 5593 5597 5601 5604 5608 5609 5612 5613 5613 5614 5614 5615 5617 5618 5618 5619 5619 5619 5620 5620 5620 5620 5622 5622 5623 5624 5624 5625 5626 5627 5627 5627 5627 5627
5554 5557 5562 5566 5569 5573 5575 5578 5580 5584 5587 5590 5594 5597 5600 5603 5603 5604 5605 5606 5607 5608 5610 5610 5611 5612 5613 5613 5614 5614 5614 5614 5615 5615 5615 5615 5615 5616 5617 5618 5619 5618 5618
5541 5548 5550 5553 5557 5561 5564 5568 5571 5574 5577 5581 5585 5588 5591 5593 5594 5594 5595 5596 5597 5599 5600 5601 5602 5604 5604 5605 5605 5606 5606 5606 5606 5606 5606 5605 5606 5606 5607 5607 5608 5608 5609
5530 5534 5538 5542 5546 5550 5555 5558 5561 5565 5568 5571 5575 5579 5581 5583 5584 5585 5585 5586 5588 5589 5591 5593 5594 5595 5595 5597 5597 5597 5598 5598 5597 5596 5597 5597 5597 5597 5597 5598 5598 5597 5598
5520 5522 5527 5532 5537 5541 5545 5549 5553 5556 5559 5563 5566 5569 5570 5572 5573 5574 5575 5576 5578 5579 5581 5583 5584 5586 5587 5587 5587 5587 5588 5588 5587 5587 5587 5587 5587 5586 5585 5585 5585 5586 5585
5508 5513 5518 5524 5529 5532 5536 5539 5543 5546 5550 5554 5556 5559 5560 5561 5563 5564 5565 5567 5568 5570 5571 5573 5574 5575 5576 5576 5576 5577 5577 5577 5577 5576 5575 5575 5575 5575 5574 5573 5572 5572 5571
5498 5504 5510 5516 5521 5525 5529 5533 5536 5540 5543 5546 5548 5549 5550 5552 5554 5555 5556 5558 5559 5560 5561 5562 5563 5563 5564 5564 5564 5564 5564 5564 5564 5563 5562 5561 5561 5560 5560 5559 5558 5558 5557
5490 5496 5502 5508 5512 5517 5522 5526 5529 5532 5535 5537 5539 5541 5542 5544 5545 5547 5548 5550 5550 5551 5551 5551 5552 5552 5552 5552 5552 5552 5551 5550 5549 5549 5548 5547 5546 5545 5544 5544 5543 5542 5541